Location: Unspecified
(0.0000°N, 0.0000°E)
Time: 11:43:32
(UTC+00:00)

Oscar 15 - Pass Details

Date: 08 June 2023
Orbit: 780 x 795 km, 98.9° (Epoch: 21 September)

Event Time Altitude Azimuth Distance (km) Brightness Sun altitude
Rises 19:16:12 0° 186° (S) 3,262 11.6 -17.7°
Reaches altitude 10° 19:18:45 10° 197° (SSW) 2,332 10.9 -18.3°
Maximum altitude 19:23:12 30° 257° (WSW) 1,361 10.3 -19.3°
Drops below altitude 10° 19:27:39 10° 318° (NW) 2,326 12.0 -20.3°
Sets 19:30:13 0° 328° (NNW) 3,252 12.7 -20.9°
